Location: Tierra del Sol
(32.6128°N, 116.3319°W)
Time: 21:04:21
(UTC-07:00)

Vanguard 2 Rocket - All Passes

Search period start: 20 July 2018 00:00
Search period end: 30 July 2018 00:00
Orbit: 554 x 3327 km, 32.9° (Epoch: 20 July)

Date Brightness Start Highest point End Pass type
(mag) Time Alt. Az. Time Alt. Az. Time Alt. Az.
20 Jul - 00:59:08 10° S 01:02:22 19° SE 01:06:30 10° E visible
20 Jul - 03:09:08 10° WSW 03:14:37 73° SSE 03:24:21 10° E visible
20 Jul - 05:21:15 10° W 05:29:02 89° N 05:43:29 10° E visible
20 Jul - 07:34:08 10° W 07:44:56 68° SSW 08:03:03 10° ESE daylight
20 Jul - 09:48:54 10° W 10:01:48 37° SSW 10:19:02 10° SSE daylight
20 Jul - 12:12:41 10° WSW 12:18:49 12° SW 12:25:15 10° SSW daylight
21 Jul - 02:10:36 10° SW 02:15:15 53° SSE 02:22:49 10° E visible
21 Jul - 04:22:19 10° W 04:28:51 88° N 04:40:54 10° E visible
21 Jul - 06:34:49 10° W 06:44:01 77° SSW 07:00:33 10° ESE daylight
21 Jul - 08:48:31 10° W 09:00:24 46° SSW 09:18:07 10° SE daylight
21 Jul - 11:06:59 10° WSW 11:17:23 19° SW 11:29:21 10° S daylight
22 Jul - 01:12:21 10° SSW 01:16:13 32° SSE 01:21:39 10° E visible
22 Jul - 03:23:31 10° W 03:29:01 87° S 03:38:49 10° E visible
22 Jul - 05:35:44 10° W 05:43:30 85° S 05:57:54 10° ESE daylight
22 Jul - 07:48:42 10° W 07:59:14 55° SSW 08:16:31 10° SE daylight
22 Jul - 10:04:37 10° W 10:15:58 26° SW 10:30:30 10° SSE daylight
23 Jul - 00:14:38 10° S 00:17:21 17° SE 00:20:31 10° ESE night (unlit)
23 Jul - 02:24:48 10° WSW 02:29:31 73° SSE 02:37:18 10° E visible
23 Jul - 04:36:48 10° W 04:43:21 89° N 04:55:24 10° E visible
23 Jul - 06:49:19 10° W 06:58:24 64° SSW 07:14:26 10° ESE daylight
23 Jul - 09:03:39 10° W 09:14:40 34° SSW 09:30:21 10° SSE daylight
23 Jul - 11:29:11 10° SW 11:31:43 10° SW 11:34:20 10° SSW daylight
24 Jul - 01:26:14 10° SW 01:30:20 51° SSE 01:36:19 10° E visible
24 Jul - 03:37:59 10° W 03:43:29 87° N 03:53:19 10° E visible
24 Jul - 05:50:12 10° W 05:57:56 73° SSW 06:12:06 10° ESE daylight
24 Jul - 08:03:31 10° W 08:13:34 41° SSW 08:29:21 10° SE daylight
24 Jul - 10:21:56 10° WSW 10:30:18 16° SW 10:40:13 10° S daylight
25 Jul - 00:27:50 10° SW 00:31:21 30° SSE 00:35:43 10° E night (unlit)
25 Jul - 02:39:13 10° W 02:43:57 88° S 02:51:46 10° E visible
25 Jul - 04:51:17 10° W 04:57:48 83° S 05:09:49 10° ESE visible
25 Jul - 07:03:56 10° W 07:12:46 49° SSW 07:27:48 10° SE daylight
25 Jul - 09:19:37 10° WSW 09:29:02 23° SSW 09:41:28 10° S daylight
25 Jul - 23:29:50 10° S 23:32:25 17° SSE 23:35:10 10° ESE night (unlit)
26 Jul - 01:40:28 10° WSW 01:44:38 73° SSE 01:50:49 10° E visible
26 Jul - 03:52:28 10° W 03:58:00 90° ESE 04:07:48 10° E visible
26 Jul - 06:04:44 10° W 06:12:20 58° SSW 06:25:56 10° SE daylight
26 Jul - 08:18:50 10° W 08:27:59 29° SSW 08:41:23 10° SSE daylight
27 Jul - 00:41:44 10° SW 00:45:33 50° SSE 00:50:23 10° E visible
27 Jul - 02:53:41 10° W 02:58:25 87° N 03:06:16 10° E visible
27 Jul - 05:05:46 10° W 05:12:14 68° SSW 05:23:59 10° ESE visible
27 Jul - 07:18:52 10° W 07:27:13 35° SSW 07:40:32 10° SSE daylight
27 Jul - 09:37:54 10° WSW 09:43:34 13° SSW 09:50:09 10° S daylight
27 Jul - 23:43:03 10° SW 23:46:34 31° SSE 23:50:21 10° E night (unlit)
28 Jul - 01:54:53 10° W 01:59:04 90° S 02:05:17 10° E visible
28 Jul - 04:06:57 10° W 04:12:27 79° SSW 04:22:11 10° ESE visible
28 Jul - 06:19:26 10° W 06:26:46 43° SSW 06:39:14 10° SE daylight
28 Jul - 08:35:14 10° WSW 08:42:31 18° SSW 08:52:03 10° S daylight
28 Jul - 22:44:33 10° SSW 22:47:33 19° SSE 22:50:22 10° ESE night (unlit)
29 Jul - 00:56:00 10° WSW 00:59:54 75° SSE 01:04:54 10° E visible
29 Jul - 03:08:11 10° W 03:12:55 88° S 03:20:44 10° E visible
29 Jul - 05:20:20 10° W 05:26:40 51° SSW 05:37:46 10° SE visible
29 Jul - 07:34:26 10° WSW 07:41:45 24° SSW 07:52:18 10° SSE daylight
29 Jul - 21:46:40 10° S 21:48:21 12° SSE 21:49:55 10° SE visible
